This is the latest recevied weather packets stored in our database for station/object VU3OPZ-13. If no packets are shown the sender has not sent any weather packets the latest 10 day(s).
| Time | Temp. | Humidity | Pressure | Rain* | Wind** | Luminosity | Snow |
|---|---|---|---|---|---|---|---|
| 1788176406 | 26.67° C | 63% | 1009 hPa | 0 mm | - | - | - |
| 1788174601 | 27.78° C | 59% | 1009 hPa | 0 mm | - | - | - |
| 1788172796 | 27.78° C | 58% | 1009 hPa | 0 mm | - | - | - |
| 1788170992 | 28.89° C | 56% | 1009 hPa | 0 mm | - | - | - |
| 1788169187 | 28.89° C | 55% | 1008 hPa | 0 mm | - | - | - |
| 1788167383 | 29.44° C | 51% | 1008 hPa | 0 mm | - | - | - |
| 1788165578 | 29.44° C | 51% | 1008 hPa | 0 mm | - | - | - |
| 1788163774 | 28.89° C | 55% | 1009 hPa | 0 mm | - | - | - |
| 1788161969 | 28.89° C | 53% | 1009 hPa | 0 mm | - | - | - |
| 1788160165 | 28.89° C | 56% | 1010 hPa | 0 mm | - | - | - |
| 1788158361 | 28.33° C | 55% | 1010 hPa | 0 mm | - | - | - |
| 1788156556 | 28.33° C | 58% | 1012 hPa | 0 mm | - | - | - |
| 1788154750 | 28.33° C | 57% | 1011 hPa | 0 mm | - | - | - |
| 1788152946 | 27.78° C | 60% | 1012 hPa | 0 mm | - | - | - |
| 1788151141 | 27.78° C | 59% | 1012 hPa | 0 mm | - | - | - |
| 1788149336 | 26.67° C | 65% | 1012 hPa | 0 mm | - | - | - |
| 1788147532 | 26.67° C | 64% | 1012 hPa | 0 mm | - | - | - |
| 1788145728 | 25° C | 72% | 1012 hPa | 0 mm | - | - | - |
| 1788143923 | 25° C | 71% | 1012 hPa | 0 mm | - | - | - |
| 1788142119 | 22.78° C | 83% | 1012 hPa | 0 mm | - | - | - |
| 1788140315 | 22.78° C | 83% | 1012 hPa | 0 mm | - | - | - |
| 1788138510 | 20.56° C | 93% | 1011 hPa | 0 mm | - | - | - |
| 1788136706 | 20.56° C | 93% | 1011 hPa | 0 mm | - | - | - |
| 1788134902 | 21.11° C | 90% | 1010 hPa | 0 mm | - | - | - |
| 1788133098 | 21.11° C | 90% | 1010 hPa | 0 mm | - | - | - |
* Rain latest hour (hover to see other rain measurements)
** Current wind speed in m/s (hover to see current wind gust speed)